Wind_Speed
29 28 26 26 26 24 24 24 24 24 23 23 24 27 29 28 28 29 27 24 22 19 16 14 13 13 13 14 14 14 14 15 16 16 14 14 14 15 16 17 18 18 19 19 20 20 20 21 21 21 21 21 21 22 23 25 26 26 26 25 25 26 28 30 34 37 36 35 35 36 37 37 35 31 31 34 38 41 43 44 43 41 41 41 42
31 30 29 29 28 27 26 26 26 25 24 24 25 28 29 28 28 28 26 23 20 17 15 13 12 12 12 12 13 14 14 16 17 17 16 16 16 16 17 17 18 18 19 20 21 21 21 21 21 21 22 22 22 23 24 25 26 26 25 25 25 25 27 30 32 36 38 37 36 38 38 38 36 33 31 33 37 41 44 45 45 44 42 42 42
32 33 32 31 31 30 29 28 27 26 25 24 26 29 29 28 28 27 25 21 19 17 15 13 11 11 11 11 12 13 14 15 16 17 17 17 17 18 19 18 18 18 19 20 21 22 22 21 21 21 22 22 22 23 24 25 25 25 24 25 26 26 26 29 31 35 39 39 38 39 40 38 37 35 32 31 34 39 43 45 46 46 45 43 43
31 33 34 33 33 32 31 30 29 27 26 26 29 31 28 27 28 26 23 20 18 17 15 12 11 10 10 11 12 13 14 15 17 17 18 19 19 19 20 19 19 19 19 20 21 22 22 21 21 21 21 21 22 22 23 23 23 24 25 26 27 27 27 28 30 33 37 39 39 40 41 39 37 36 34 31 31 36 41 44 46 47 47 46 45
30 32 34 35 35 34 33 32 31 29 27 27 30 29 26 27 27 24 22 20 18 17 15 14 14 13 13 13 13 14 15 17 18 18 19 19 19 19 20 20 20 20 20 21 21 21 21 21 21 21 21 22 22 23 23 23 23 24 25 26 28 28 27 28 29 31 35 38 40 41 40 39 37 36 34 32 31 32 37 42 46 47 48 48 48
28 31 33 35 36 35 35 34 33 30 27 27 28 26 25 27 26 23 22 20 18 16 16 17 17 17 17 17 16 17 17 18 18 18 18 18 19 19 20 20 20 20 20 20 21 21 21 21 21 21 21 22 22 22 23 23 23 24 24 25 27 27 26 27 29 31 34 36 39 41 39 37 38 36 32 31 31 30 33 38 43 47 48 49 49
28 30 31 33 35 36 36 35 34 31 27 26 26 25 25 26 25 23 21 18 16 16 17 18 18 18 19 19 19 19 20 20 19 18 18 18 19 19 19 19 19 19 20 20 20 20 20 21 21 21 21 22 21 21 21 21 22 23 23 24 25 25 26 28 29 31 33 35 37 40 39 38 39 38 32 29 30 30 30 34 40 45 48 49 50
27 29 31 32 34 35 36 35 33 30 27 26 25 24 25 25 23 20 18 15 15 16 17 17 17 18 19 20 21 21 21 21 20 19 18 18 19 19 19 19 18 18 19 19 20 20 20 20 20 21 21 22 22 22 21 21 21 22 22 24 25 26 27 29 30 31 32 34 36 38 39 39 40 39 32 27 29 29 29 30 35 42 47 49 50
27 29 31 32 33 34 35 35 33 29 26 26 25 24 24 23 20 18 15 14 15 16 17 18 18 18 19 20 21 21 21 20 19 19 18 18 19 19 19 19 19 18 18 19 20 20 20 20 20 21 21 22 22 22 22 22 22 22 22 24 25 27 28 29 30 31 32 34 36 37 39 40 40 38 32 25 26 29 29 28 31 37 44 48 49
26 28 30 32 33 34 35 35 31 27 25 25 24 24 23 21 19 17 16 16 17 18 19 19 18 18 18 19 20 21 20 20 19 19 19 19 19 19 20 20 19 19 20 20 20 20 20 20 20 21 22 22 22 23 23 23 23 23 23 24 25 27 28 29 30 31 32 34 35 36 37 40 40 37 33 27 25 28 29 29 29 33 40 46 48
24 25 27 29 31 32 32 30 27 24 23 23 23 23 21 18 17 16 17 18 19 19 19 20 19 19 18 19 20 20 21 21 21 20 20 20 20 20 20 20 20 21 21 21 21 20 20 20 21 22 22 22 22 23 23 23 23 23 23 24 25 26 27 29 29 30 32 34 34 34 36 40 40 37 34 32 29 27 29 30 30 30 35 43 47
22 23 24 25 27 27 24 22 22 21 22 23 23 21 18 16 15 16 18 19 19 18 19 21 21 20 20 20 20 20 21 22 23 22 22 21 21 21 21 21 22 22 22 23 23 23 22 21 22 23 23 22 22 23 22 22 22 23 23 23 24 25 27 28 30 30 32 33 33 32 35 40 41 38 36 36 34 31 29 31 31 31 32 40 46
20 20 20 20 21 20 17 18 19 20 21 22 21 18 16 15 15 16 18 19 19 20 20 22 23 22 22 23 23 22 22 23 24 24 22 21 22 23 22 22 22 22 23 24 25 24 23 23 23 24 23 23 23 23 22 22 22 22 23 22 23 24 26 27 29 30 31 33 33 32 34 38 40 39 39 39 37 35 33 32 33 33 33 36 44
19 19 18 17 18 17 16 17 17 18 20 20 18 16 16 16 17 18 19 20 21 22 23 23 24 24 24 25 26 25 24 24 25 23 21 20 22 23 23 23 23 23 23 24 24 23 23 23 23 23 24 23 23 24 23 23 23 22 22 22 22 23 24 25 27 29 30 32 32 32 33 37 39 40 41 42 40 38 37 36 35 35 34 34 39
18 18 17 18 19 17 15 16 17 18 19 18 16 16 16 18 19 19 21 23 24 25 24 24 24 25 26 26 26 26 25 26 25 23 20 20 22 23 23 23 23 23 23 22 22 22 22 23 23 23 23 24 24 24 24 23 23 22 22 22 22 22 22 23 25 27 28 30 31 33 34 36 39 41 43 45 43 39 39 39 37 36 36 35 37
18 19 18 18 17 15 14 16 18 18 17 16 15 15 17 19 20 21 22 24 26 26 25 26 28 28 26 26 25 25 26 26 24 22 21 21 23 23 23 23 23 23 23 22 21 21 22 23 23 23 23 24 24 25 25 24 23 23 22 23 22 21 21 22 24 26 27 28 30 32 35 37 39 41 44 47 44 38 38 40 39 38 37 36 36
19 21 19 16 13 12 14 17 17 16 15 15 14 16 18 19 20 22 24 25 27 28 28 28 29 28 26 26 26 24 25 26 24 21 22 23 24 24 23 22 23 23 23 22 20 21 22 23 24 24 24 24 25 25 25 25 24 23 23 23 23 22 21 22 24 25 26 28 29 30 33 37 39 42 46 47 43 37 36 40 40 39 38 38 36
17 18 16 14 12 11 14 17 17 15 14 14 15 17 19 20 22 24 26 27 28 30 31 32 33 31 25 23 24 24 25 26 24 22 23 24 25 24 22 22 23 23 23 21 20 20 22 23 24 24 24 25 26 25 26 26 26 25 24 24 24 23 22 23 24 25 26 27 28 29 32 36 39 43 47 46 41 35 34 37 39 39 38 37 35
14 14 14 14 12 13 16 17 16 15 14 14 16 18 19 21 23 25 26 26 27 28 29 31 33 33 27 21 20 22 24 25 24 23 23 24 23 22 22 22 22 23 22 20 19 20 22 24 25 25 25 26 27 27 27 28 27 26 25 25 25 24 24 24 25 26 26 27 27 29 33 36 39 43 46 44 39 35 32 33 37 39 38 37 34
14 16 15 14 14 15 16 15 14 14 14 15 17 19 21 22 23 25 26 27 27 27 27 27 27 27 27 25 23 22 22 24 24 22 22 22 22 22 24 24 23 22 22 20 19 20 22 24 25 25 26 27 28 28 28 28 28 26 26 26 26 25 25 25 26 27 27 28 29 31 34 37 39 42 44 42 39 35 31 31 34 37 38 37 34
19 18 16 15 14 13 13 12 13 14 15 17 19 21 23 24 24 25 27 27 27 27 27 26 24 24 27 28 28 25 23 22 22 22 22 23 23 24 25 24 23 22 22 20 20 21 22 24 25 26 26 27 28 28 28 28 28 27 26 26 25 25 26 26 27 27 28 29 30 32 35 37 39 41 43 42 39 34 29 29 33 36 38 36 33
20 17 15 12 10 10 10 11 13 15 17 19 22 24 25 25 23 26 28 27 26 26 25 25 24 25 27 28 28 27 25 23 22 23 23 24 26 26 25 24 24 24 22 21 22 23 24 25 25 25 26 27 28 28 28 27 27 26 25 25 24 25 26 27 27 27 28 29 30 32 35 38 39 42 44 44 40 35 29 27 31 35 35 32 32
17 15 12 9 7 8 10 12 14 17 19 21 23 24 25 25 23 25 28 28 28 27 25 25 25 26 26 25 24 25 25 25 25 25 24 24 26 27 26 26 26 25 23 22 23 25 26 26 26 26 26 26 27 27 26 25 25 24 24 24 25 26 26 26 27 27 28 29 30 32 35 38 40 43 46 47 44 38 31 27 29 31 30 28 30
16 13 9 6 7 9 11 13 16 19 21 22 23 24 25 26 25 26 28 29 29 28 25 25 27 25 23 21 20 22 24 25 27 27 25 24 26 26 26 27 27 26 25 25 26 27 27 27 27 26 26 26 26 25 24 23 23 23 23 24 25 26 26 26 26 27 28 29 29 31 34 38 41 44 47 50 48 40 32 28 27 26 25 25 28
17 11 7 7 9 11 12 15 18 20 22 23 24 26 27 28 28 28 29 29 29 28 26 25 26 25 23 22 21 23 25 26 27 27 25 24 26 27 27 28 28 27 27 28 29 29 28 28 27 25 25 25 24 23 22 23 23 22 23 24 26 26 26 26 26 27 28 29 29 31 34 37 39 43 46 49 48 41 31 25 22 20 20 23 26
13 8 8 10 11 13 14 18 21 22 23 25 26 27 27 28 28 28 28 28 28 26 25 24 24 24 24 22 21 22 24 25 26 25 23 24 26 27 28 28 28 28 28 30 31 30 29 28 27 25 24 23 22 22 22 22 22 22 23 25 27 27 26 27 27 27 28 29 29 30 33 35 38 41 44 46 46 41 33 24 16 13 15 19 23
12 12 12 12 13 15 19 24 27 25 25 26 27 27 27 27 28 27 27 26 26 25 23 22 22 22 22 21 22 23 24 24 24 24 22 23 25 27 28 28 28 29 30 31 32 31 30 28 26 24 23 22 21 21 22 22 22 22 24 26 27 28 27 27 27 27 28 29 29 30 32 33 36 39 41 44 45 42 35 26 12 7 9 12 17
18 15 11 12 16 19 24 28 29 27 26 27 28 28 28 27 27 27 26 26 25 24 23 22 22 22 22 22 24 25 25 25 25 24 23 24 26 28 28 27 28 31 31 32 32 32 30 28 26 24 22 21 21 21 22 22 22 23 25 26 27 28 28 28 28 28 28 28 28 29 30 31 33 36 38 41 44 42 35 28 15 2 11 13 16
24 18 15 18 20 22 26 28 28 26 27 28 30 30 29 29 29 28 28 27 26 25 24 22 22 23 24 24 24 24 25 24 24 25 25 26 26 27 26 26 29 32 33 32 32 31 29 27 25 23 22 21 22 22 22 23 23 24 25 26 27 28 28 28 28 27 27 27 27 28 28 28 30 34 35 37 42 42 36 30 23 7 11 16 16
25 22 23 24 23 24 26 26 27 28 28 29 31 31 31 31 30 30 30 29 27 26 24 23 23 24 25 25 24 24 24 24 25 26 27 26 26 26 26 28 30 32 32 31 30 29 28 25 23 22 22 22 23 23 23 23 24 24 25 25 27 28 28 28 28 27 26 26 26 26 27 27 28 32 34 34 39 42 38 32 29 19 3 16 18
24 25 25 25 24 25 26 26 28 29 29 29 31 33 33 32 32 32 31 30 29 27 25 25 24 25 25 25 25 24 25 25 26 26 27 27 26 26 27 29 30 31 31 30 30 29 26 22 21 21 22 23 23 23 23 24 24 24 25 26 26 28 28 28 28 27 26 25 25 24 24 25 25 28 32 33 34 39 40 34 30 26 13 8 19
23 24 25 25 25 26 26 27 29 30 30 30 32 34 34 34 33 33 32 31 30 28 27 26 26 26 26 26 25 25 25 25 25 26 26 27 27 27 28 30 30 30 29 28 28 27 22 18 19 21 22 23 23 23 24 25 25 25 25 26 26 27 28 27 27 27 26 24 24 23 22 23 23 25 28 30 31 34 38 37 32 27 22 8 10
22 24 26 27 26 26 27 28 30 31 31 31 33 35 35 34 34 34 33 32 30 29 28 27 27 27 27 26 25 25 25 24 25 25 25 26 25 26 27 28 27 26 25 24 25 23 19 17 19 20 21 22 23 23 24 25 25 25 26 26 26 26 26 26 26 26 25 24 23 22 22 21 22 22 23 26 28 30 33 37 35 29 23 18 8
24 26 27 27 26 27 28 30 31 32 31 32 34 35 35 35 34 33 32 31 30 28 28 27 27 27 27 26 25 25 24 23 23 23 23 23 22 23 24 24 21 20 19 20 20 20 19 18 18 19 21 22 22 23 24 25 25 26 26 26 26 25 24 25 25 24 23 22 22 21 21 20 20 20 20 21 24 27 28 32 35 33 26 21 18
26 26 26 26 27 28 30 31 32 32 32 33 34 35 36 36 34 33 32 30 29 28 27 27 26 26 25 24 24 23 22 22 21 21 20 20 20 20 22 21 17 16 16 16 17 18 19 18 19 19 20 21 22 23 24 24 25 25 25 25 24 23 22 22 22 21 21 20 20 19 19 18 18 19 19 19 20 23 25 26 30 34 31 25 21
25 25 26 27 29 30 31 32 32 32 33 33 34 36 37 36 34 33 32 29 28 27 26 26 25 25 23 23 23 23 22 21 21 20 19 19 18 18 18 17 15 15 16 17 17 18 19 19 19 20 20 21 21 22 23 24 24 24 24 22 21 20 20 20 20 19 18 17 17 17 16 16 16 16 17 17 17 19 21 23 25 28 30 30 26
25 26 28 29 30 31 31 31 31 32 33 33 34 36 36 35 34 33 30 28 27 26 24 24 24 23 22 22 23 23 22 22 21 19 18 17 16 15 14 14 14 14 15 16 17 18 19 19 20 20 20 21 22 22 23 23 23 23 22 20 19 19 18 18 18 18 16 15 15 15 14 14 15 14 14 15 15 15 17 19 21 23 25 27 27
26 28 29 30 31 31 30 30 31 32 33 33 35 36 35 33 32 31 28 26 25 24 22 21 21 21 22 22 22 23 23 22 20 17 14 13 13 13 13 13 13 14 15 16 18 20 20 21 22 22 21 21 21 21 21 22 22 22 20 19 18 18 18 17 16 16 15 13 13 13 13 13 13 13 13 13 13 13 13 15 16 18 20 22 24
28 29 30 31 31 31 30 31 32 32 33 34 35 35 34 32 30 28 25 24 23 21 20 19 19 20 21 22 22 23 23 21 18 15 13 12 12 13 13 14 15 16 17 18 20 21 22 22 23 22 21 19 19 19 19 20 20 20 19 17 16 16 16 15 14 14 13 12 12 12 12 12 12 12 12 11 11 11 11 12 13 14 16 18 20
29 31 31 31 31 31 31 32 32 32 34 35 35 33 31 30 27 24 23 22 20 19 18 19 19 19 20 21 22 22 21 19 16 15 15 14 14 14 15 16 17 18 19 19 20 21 22 21 21 20 19 17 17 17 17 17 17 18 17 15 13 13 13 12 12 12 11 11 10 10 10 10 10 11 11 10 10 9 9 10 11 11 12 15 17
30 32 32 32 32 31 31 32 32 33 34 33 31 29 29 27 24 22 21 19 17 17 17 18 18 18 19 20 21 21 20 18 17 17 18 18 17 16 17 17 18 20 21 20 20 20 20 19 18 17 17 16 16 15 15 14 13 13 13 11 10 9 9 9 9 9 10 10 10 9 9 9 9 9 10 10 10 9 8 8 8 9 10 11 12
30 31 31 31 31 31 31 32 32 31 30 27 26 26 26 24 22 20 18 16 16 17 17 18 18 18 18 18 19 19 19 19 19 19 18 18 17 17 18 18 19 20 21 20 19 18 17 17 16 16 15 15 14 12 11 9 8 8 8 7 6 6 7 7 8 9 9 10 10 10 10 9 9 9 8 8 8 9 8 7 7 7 8 8 9
28 29 30 30 30 30 31 30 29 26 24 23 23 23 22 21 20 19 17 15 16 17 18 18 18 18 18 18 18 18 19 19 20 19 18 18 18 18 19 20 20 20 20 19 17 15 15 14 14 13 12 11 9 7 6 5 4 4 4 4 5 6 6 7 7 8 9 10 10 11 11 11 10 9 8 8 8 8 8 7 6 6 5 6 7
27 28 29 29 29 28 27 25 23 22 21 20 20 20 19 20 20 19 18 17 16 16 17 17 17 18 18 18 18 18 19 20 21 21 20 20 19 19 20 20 20 19 19 17 15 13 12 11 10 9 8 6 4 3 2 2 2 2 3 4 5 6 7 7 8 8 9 10 10 11 11 11 10 10 10 9 8 8 7 7 6 6 5 5 4
25 26 26 26 26 25 24 22 20 19 19 19 19 19 20 20 20 19 19 18 16 16 16 17 18 18 19 19 19 20 20 21 22 22 22 21 21 20 20 19 18 17 16 14 12 10 8 7 6 6 4 2 2 2 2 1 1 2 3 5 6 7 8 9 9 8 9 9 10 10 10 10 10 11 10 10 9 8 8 7 6 6 6 5 5
23 23 23 23 23 23 21 20 19 18 17 18 19 20 20 19 19 18 18 17 17 17 16 17 18 19 21 22 22 23 23 23 23 23 22 22 21 20 19 17 16 15 12 10 9 7 5 4 4 4 2 2 2 2 1 2 3 3 4 5 6 7 8 9 9 9 9 9 9 9 10 10 10 9 9 9 9 9 9 8 7 6 6 6 7
22 22 21 21 21 20 19 19 18 18 18 18 19 19 19 18 17 17 16 17 18 18 18 17 17 18 20 22 23 24 23 23 22 22 21 20 20 19 17 15 13 11 9 8 7 5 4 4 4 3 3 3 2 2 2 2 3 4 4 5 6 7 8 9 10 10 10 10 10 10 10 10 9 9 8 8 8 8 9 9 8 8 7 6 6
21 21 20 20 19 18 17 17 18 18 18 17 17 17 17 17 17 17 17 17 17 18 19 18 17 16 17 18 20 21 21 20 19 19 19 18 17 16 14 12 9 8 7 7 6 5 5 4 4 3 3 2 2 2 3 3 4 5 6 6 7 7 8 9 9 10 11 11 10 10 10 10 10 9 8 8 8 7 7 8 8 8 8 7 6
20 20 19 18 18 17 16 16 17 18 18 18 17 18 18 19 19 19 19 19 19 19 19 19 18 16 15 15 16 17 17 17 17 17 16 15 14 14 13 11 8 7 7 7 6 6 5 5 4 3 3 2 2 2 3 4 5 6 6 7 8 8 8 9 9 9 10 11 10 10 9 10 10 10 9 9 8 7 7 6 6 7 7 7 7
18 16 16 15 15 16 17 17 17 17 18 19 19 20 20 20 21 21 22 22 22 22 22 21 20 19 17 16 16 15 14 14 14 15 14 14 13 13 12 11 9 8 7 7 6 5 5 4 4 3 3 2 2 3 4 5 6 6 7 8 8 9 9 9 9 9 10 10 11 10 9 9 9 9 9 9 9 8 7 6 5 6 6 6 6
15 14 15 16 16 17 19 19 20 20 21 22 22 23 23 23 24 24 24 25 25 24 24 24 23 22 22 21 20 17 13 11 12 14 14 14 14 13 12 11 9 8 7 7 6 6 6 5 5 5 4 3 3 3 4 5 6 7 8 8 8 9 9 9 9 10 10 10 10 10 10 9 8 8 9 10 9 8 8 7 6 6 6 5 5
Wind_Direction
246 247 250 253 257 262 267 274 280 284 290 296 302 312 315 316 323 330 332 334 335 331 326 320 315 313 313 316 319 319 316 314 316 318 318 315 312 307 304 304 307 307 307 307 307 307 308 307 307 306 305 304 302 301 299 296 295 295 296 296 296 297 297 298 298 299 302 307 311 313 313 310 305 295 276 257 247 246 247 248 247 245 243 242 241
251 250 250 252 257 260 264 271 276 281 288 293 301 309 312 314 322 329 331 333 334 332 329 324 316 309 307 312 319 322 319 316 317 319 320 316 311 308 308 310 311 310 308 308 308 309 309 308 309 308 306 305 303 301 298 296 295 295 296 297 298 299 301 302 302 301 302 307 313 315 316 313 308 302 286 266 251 244 243 244 245 244 242 241 239
253 251 249 251 256 259 262 268 272 278 284 290 299 307 309 313 322 328 329 333 335 334 333 328 320 313 310 312 317 319 319 318 318 318 318 315 312 312 313 314 313 310 307 308 309 310 310 311 311 308 307 306 306 304 302 299 297 295 296 297 299 301 304 305 305 304 304 308 314 317 317 315 311 307 296 275 258 249 242 240 242 243 241 239 238
254 252 250 251 255 257 261 266 269 275 280 288 300 305 306 312 322 326 330 334 336 335 333 328 324 321 319 318 318 319 321 322 322 320 317 315 314 314 314 313 312 309 307 308 309 310 311 311 310 307 307 308 308 306 305 303 300 296 296 297 299 302 305 306 305 304 304 307 314 318 318 316 314 312 303 283 263 255 248 240 238 240 240 239 237
255 254 251 252 255 257 261 264 268 273 278 289 301 303 303 313 321 325 330 334 337 339 338 337 336 334 331 328 326 326 325 324 322 318 315 313 313 313 312 311 311 310 310 310 309 309 309 308 307 306 307 309 309 308 306 304 300 297 297 299 301 304 306 306 305 304 304 308 314 318 319 317 316 315 307 289 270 259 253 245 238 237 238 238 237
256 254 253 255 256 258 260 264 267 270 276 289 299 298 302 313 319 324 331 337 344 349 347 345 342 337 334 330 328 326 323 321 318 315 314 313 313 313 312 310 310 310 310 309 308 308 307 305 304 304 306 308 311 310 308 305 301 301 302 303 304 305 306 307 306 305 306 308 313 318 319 318 318 318 310 293 278 268 260 249 240 236 236 236 236
254 254 255 257 258 259 260 262 266 269 274 288 295 296 304 313 319 326 335 344 354 357 351 345 341 337 334 331 327 325 322 320 318 316 316 314 313 312 310 308 308 308 308 307 306 305 304 303 302 305 309 311 313 313 311 307 304 305 306 307 308 308 308 308 306 306 306 308 313 317 319 320 321 320 313 295 283 280 273 258 243 236 235 235 235
252 253 255 257 259 258 257 261 265 267 276 289 294 296 305 313 320 330 340 347 352 351 345 340 337 337 336 331 327 324 321 319 317 316 315 313 311 308 306 305 305 306 308 307 305 303 301 302 304 308 311 313 313 312 311 309 308 308 310 310 310 311 310 308 307 306 307 309 314 316 319 323 324 322 316 297 282 282 283 271 251 239 235 235 235
250 252 254 256 257 255 256 260 262 267 280 291 293 296 305 313 322 334 340 340 339 336 335 334 332 333 333 330 327 323 320 317 314 313 312 309 308 306 306 306 306 306 308 306 305 303 302 303 305 307 310 311 311 311 310 310 310 311 312 312 311 311 310 308 307 308 308 310 314 317 321 327 328 324 320 305 284 278 281 278 263 246 238 235 235
250 252 253 255 254 253 256 260 263 273 286 289 289 296 305 314 326 336 338 335 332 330 330 330 328 327 325 325 324 321 316 314 312 312 311 308 307 307 307 307 306 305 305 303 303 302 302 302 302 304 307 308 310 310 310 311 311 313 314 313 312 311 309 307 308 308 309 312 315 318 323 329 330 326 321 313 297 281 277 279 273 257 244 237 235
252 253 254 254 255 256 260 266 271 280 284 283 287 297 307 319 329 335 335 331 328 326 326 325 324 324 322 320 320 319 316 313 312 311 309 306 307 307 306 305 304 304 304 304 304 303 301 301 301 302 304 306 308 310 311 311 312 313 314 314 312 310 308 308 309 310 313 316 317 319 323 327 328 325 318 313 304 287 275 274 275 267 252 242 236
251 253 255 256 258 260 267 275 279 278 277 281 290 300 311 323 329 330 329 326 324 322 321 319 320 323 322 318 316 317 316 314 313 311 308 305 305 305 304 304 304 305 306 307 306 304 302 301 302 303 304 306 308 308 309 310 311 312 313 313 311 310 309 310 311 312 316 318 318 319 323 325 326 325 320 312 304 293 279 269 269 271 262 248 240
250 254 258 261 263 264 269 273 271 270 275 283 293 301 313 322 323 323 321 317 316 316 315 315 316 317 319 320 319 319 317 313 312 312 308 304 302 302 303 304 305 306 307 308 306 304 303 302 302 304 306 307 307 306 308 310 310 310 312 312 311 310 310 312 313 315 317 318 317 318 322 324 325 327 325 317 306 296 286 272 263 264 264 255 244
250 256 260 261 262 264 265 263 262 268 276 284 293 303 313 318 318 317 314 310 310 311 309 309 310 312 315 318 321 321 318 313 311 310 306 302 300 301 302 303 304 306 307 308 306 303 301 302 303 305 306 306 306 307 308 310 309 308 310 311 310 311 312 313 313 314 316 316 315 317 321 325 326 328 329 323 311 298 289 280 268 261 260 258 249
249 254 255 258 262 261 256 254 260 270 278 286 296 305 312 314 313 311 308 305 305 304 302 303 304 305 308 312 315 318 317 315 311 306 302 300 299 300 301 303 304 305 306 306 305 302 301 302 304 305 306 306 307 307 308 308 307 307 308 308 309 311 312 312 311 313 314 314 315 318 322 326 327 328 329 327 316 299 287 283 277 268 261 257 251
246 250 253 256 257 251 248 254 263 271 279 289 298 306 309 310 309 306 302 301 299 297 296 297 296 294 297 302 305 310 315 314 310 304 301 300 300 299 299 301 302 304 304 303 302 302 302 303 304 305 306 306 307 307 307 307 306 306 306 305 307 310 311 310 310 312 312 313 316 321 324 326 326 327 328 326 318 302 285 279 278 274 266 258 251
243 248 250 243 232 232 247 257 263 269 279 290 298 302 303 301 299 295 291 289 289 288 286 286 286 285 289 295 298 303 310 309 305 301 301 301 300 298 296 297 299 301 302 301 299 300 302 303 303 305 306 306 306 306 307 307 308 307 306 305 308 310 309 308 309 309 311 314 318 323 325 324 325 326 326 325 319 304 287 279 277 275 267 259 252
243 239 231 216 207 223 244 251 257 266 277 287 293 294 295 296 297 297 294 291 292 293 288 281 275 271 273 284 292 297 302 303 300 300 301 301 300 297 294 293 296 299 300 298 297 299 301 302 303 305 306 305 304 305 307 308 309 309 307 307 308 309 308 307 309 310 312 315 318 321 322 323 326 328 326 324 319 307 291 282 279 276 269 259 253
228 209 202 202 205 220 234 243 254 266 276 287 294 295 298 303 305 305 304 302 303 304 300 292 283 275 270 273 281 288 294 297 297 297 299 299 296 294 292 292 294 298 297 295 296 298 299 301 302 304 305 304 304 306 306 306 308 308 308 307 308 308 309 310 312 314 314 317 318 319 321 325 329 330 327 323 319 311 297 284 280 278 271 260 251
198 192 198 205 209 220 234 248 263 276 289 299 301 300 302 305 306 306 304 301 301 304 308 309 305 296 289 281 275 277 283 288 293 295 295 295 293 293 293 293 294 296 296 295 296 296 297 298 299 301 302 303 304 305 304 304 306 307 307 307 307 308 310 313 315 316 316 318 320 321 325 329 331 332 329 324 320 315 302 285 277 276 272 262 250
189 197 204 208 215 229 249 268 283 295 305 308 305 302 302 302 303 305 303 298 300 306 309 308 307 305 299 286 271 267 270 275 283 289 291 291 292 292 291 291 291 294 295 295 295 295 294 295 295 296 299 301 302 304 303 304 305 307 307 307 307 309 313 316 317 317 318 320 322 325 328 330 331 333 332 328 324 320 307 285 274 273 272 262 249
195 201 205 213 229 251 274 289 299 308 311 309 307 306 305 305 304 305 303 299 302 307 307 302 301 303 301 286 270 267 273 275 277 280 283 287 290 290 289 288 288 291 292 292 294 295 294 293 292 293 295 298 301 303 303 304 306 307 307 308 309 312 315 316 317 318 319 320 323 326 327 329 330 333 335 334 331 325 312 290 274 271 270 262 248
200 206 214 230 254 276 291 299 305 311 311 310 311 309 309 311 311 306 303 301 303 305 304 300 300 300 297 286 273 272 279 281 277 276 278 284 289 290 287 284 284 286 287 289 294 296 295 292 291 291 293 297 302 305 305 306 307 307 308 309 311 314 316 317 317 318 318 319 322 324 326 330 333 334 336 338 337 331 321 304 285 273 267 257 243
214 219 229 256 281 288 297 304 308 312 314 315 317 316 315 317 315 308 305 305 305 305 303 300 298 297 294 289 281 278 279 276 272 273 277 282 287 288 283 279 279 281 283 288 294 297 295 293 291 290 293 300 305 306 306 306 307 307 309 311 313 315 316 317 317 317 316 317 320 323 326 331 334 335 337 340 340 337 330 317 300 280 262 248 237
225 228 241 262 277 283 291 302 309 315 319 320 321 321 320 320 318 315 314 313 311 308 304 298 295 293 292 290 284 279 276 272 271 274 279 283 286 284 278 274 276 278 281 288 294 296 295 293 292 292 296 303 306 306 306 306 307 308 310 312 313 313 315 316 316 316 315 315 318 323 327 332 335 336 338 341 343 343 339 327 310 287 257 238 230
211 221 243 254 268 281 295 310 317 321 323 323 321 321 320 320 319 318 317 315 311 306 302 297 293 293 293 292 287 280 276 274 274 277 281 284 285 281 276 274 275 278 283 290 295 296 295 294 295 295 298 303 304 304 305 306 308 309 311 311 311 311 312 314 315 315 315 316 320 325 328 331 335 337 339 342 345 348 349 341 318 285 253 233 225
202 224 242 256 272 284 298 309 313 316 320 321 320 319 319 320 321 320 316 313 309 305 302 299 295 293 293 293 290 285 280 277 278 279 279 278 277 275 271 270 274 281 287 292 296 297 296 296 297 297 298 300 301 302 304 306 307 309 311 311 310 311 312 313 314 316 317 319 322 325 327 330 334 337 340 343 346 350 354 353 335 263 236 228 223
211 229 256 275 278 285 293 296 297 303 314 319 319 318 317 318 321 321 317 312 309 308 306 303 299 295 293 292 290 286 282 279 278 278 275 272 272 273 270 268 273 282 288 292 296 297 297 297 296 295 295 297 297 297 300 303 305 308 310 311 311 312 312 313 314 316 318 319 321 323 326 329 334 337 341 344 347 351 356 0 3 214 204 211 214
218 234 265 275 278 284 286 284 286 294 307 315 319 318 315 315 319 322 320 316 312 309 307 304 299 295 293 292 290 286 282 277 276 277 276 274 275 278 278 275 277 282 287 291 294 297 297 296 294 292 292 292 292 293 296 300 304 307 309 311 312 312 312 312 313 314 316 317 319 322 326 330 334 338 341 344 348 352 357 2 11 26 197 204 207
232 248 265 271 276 279 276 276 282 289 299 311 318 319 317 316 318 320 321 319 314 309 306 302 298 294 293 292 290 288 284 281 280 280 280 277 275 276 278 278 280 283 286 288 291 292 291 290 289 288 289 288 288 290 294 298 302 305 307 309 310 311 310 310 311 312 313 316 318 321 326 331 335 338 342 344 348 354 358 2 10 21 156 201 205
255 264 270 271 271 271 272 277 285 291 299 309 317 319 318 317 319 320 320 319 315 309 306 302 298 295 293 291 290 288 286 284 282 282 281 280 278 278 279 279 280 282 283 285 288 288 287 285 284 285 286 286 287 289 291 295 298 301 304 306 307 309 309 308 309 310 311 313 316 319 325 331 335 337 342 345 348 353 359 2 9 22 38 191 207
267 269 270 270 269 270 276 283 289 295 301 308 314 317 316 317 319 319 318 316 313 309 305 303 300 298 295 292 290 287 285 283 281 280 279 280 280 281 280 279 279 280 281 282 287 291 290 286 285 285 285 285 286 288 290 293 297 299 301 303 305 307 307 307 307 308 308 309 314 318 322 329 334 337 342 347 349 351 358 4 10 21 33 50 205
272 270 270 269 268 273 281 287 293 298 300 305 311 313 314 316 318 317 315 314 311 308 305 303 301 298 296 293 291 288 286 283 280 279 280 281 282 281 279 279 281 283 282 282 287 292 292 287 284 284 284 285 286 288 290 293 296 297 299 302 304 305 306 306 306 307 308 309 313 318 321 325 332 336 341 347 350 352 357 4 10 19 30 39 56
275 271 268 268 270 278 285 290 294 297 299 303 308 310 312 315 316 315 313 311 308 306 305 303 300 297 296 294 291 287 284 281 279 280 281 282 280 278 278 281 285 288 286 282 283 286 286 284 282 282 283 285 285 287 289 292 295 298 299 302 304 304 305 306 306 306 309 311 312 316 319 321 326 334 340 346 350 353 357 3 11 19 25 31 39
274 269 267 271 277 283 287 290 292 294 296 301 305 308 311 313 313 312 310 308 305 304 303 301 298 296 294 291 286 283 281 280 280 281 283 282 280 279 281 286 289 288 283 278 278 281 284 286 286 285 285 286 286 287 290 292 294 297 299 301 303 304 304 305 305 306 308 311 311 313 316 320 324 331 339 344 348 352 357 2 10 17 23 26 27
272 268 270 275 280 284 287 288 290 292 295 300 304 307 309 310 310 309 307 305 304 303 301 299 297 295 293 288 283 281 281 281 283 286 288 288 286 284 285 288 290 287 283 280 281 284 287 289 289 288 288 289 290 290 292 293 294 296 297 298 299 302 302 302 303 305 307 310 312 312 314 320 324 327 333 340 346 351 356 2 8 14 21 26 24
270 270 275 279 282 285 286 287 290 294 297 301 304 307 308 308 306 305 304 303 302 302 301 299 297 295 291 287 284 283 283 283 285 290 293 291 287 284 285 288 289 288 287 286 286 287 289 290 290 291 292 292 293 293 293 294 294 294 295 296 297 299 301 300 301 304 307 309 313 316 316 319 322 324 327 334 342 349 356 2 7 11 16 23 25
273 277 281 283 284 285 287 289 293 296 298 301 304 305 305 304 302 301 301 301 301 302 301 299 296 292 287 285 284 283 282 283 286 290 291 288 286 287 289 291 291 288 288 288 287 288 290 291 293 295 295 293 293 293 292 292 293 292 294 297 298 299 301 303 303 305 310 313 316 319 320 319 320 323 326 330 336 344 354 0 4 8 12 17 21
274 278 280 282 283 285 288 291 293 295 297 300 303 303 301 300 298 298 299 299 300 301 300 297 292 287 283 282 282 282 283 286 289 287 282 281 286 289 288 287 286 285 284 285 285 287 290 292 293 294 295 293 292 291 290 290 291 293 294 298 301 301 303 306 309 311 315 320 321 322 323 324 322 322 325 328 330 336 346 355 0 4 8 13 18
272 275 277 280 282 285 288 291 293 295 297 299 300 299 297 295 295 296 297 298 298 298 296 293 290 285 282 281 282 283 286 291 290 283 280 282 284 283 280 278 279 280 281 281 284 287 290 292 293 293 294 293 290 290 290 289 290 293 297 301 305 308 309 313 319 322 324 328 331 331 329 329 327 326 326 326 327 329 333 342 355 3 5 9 16
272 275 277 280 282 284 287 290 292 294 295 297 297 295 292 292 294 296 296 296 295 293 292 289 286 283 280 278 279 281 283 285 284 283 284 286 285 281 278 276 277 278 279 281 285 289 291 292 293 293 294 293 291 290 290 290 290 294 300 305 311 317 323 330 336 340 342 344 347 348 345 339 334 333 332 328 324 325 324 326 340 357 5 8 12
275 277 278 280 283 285 288 290 291 292 293 294 293 291 290 292 295 296 295 292 289 287 286 284 282 280 277 275 276 277 277 278 280 282 285 287 287 287 287 286 285 284 283 284 287 291 292 292 293 294 293 292 291 290 290 290 290 293 301 313 327 341 353 360 1 1 1 1 3 5 4 358 350 344 342 336 325 318 317 318 323 337 354 5 11
279 280 281 283 285 286 288 289 290 291 292 292 291 290 291 293 295 293 289 283 280 279 279 279 278 277 276 275 276 277 278 279 281 283 285 288 289 290 290 291 291 291 290 290 291 292 293 293 294 293 292 290 289 287 283 281 284 291 305 326 346 360 10 13 13 11 7 5 8 14 13 9 7 4 358 350 338 323 313 310 311 316 330 348 359
281 282 283 284 285 286 287 288 288 289 290 290 289 290 290 290 290 289 286 280 276 273 274 274 274 274 275 276 277 278 279 281 282 285 286 287 287 288 289 292 292 291 291 292 293 294 296 295 292 290 290 286 277 267 259 259 273 300 324 335 345 355 2 7 9 10 6 1 4 11 12 9 13 18 14 4 353 339 324 310 303 302 308 319 331
282 282 283 284 285 285 285 286 287 288 289 289 289 289 288 287 286 287 286 284 281 277 273 273 273 272 272 272 272 273 275 277 278 280 281 282 284 287 290 290 289 288 289 292 295 296 297 293 285 281 278 265 248 246 255 277 305 327 337 341 341 344 350 354 356 359 360 356 355 359 3 5 11 18 19 15 8 357 344 330 314 300 296 297 302
280 281 281 281 281 282 283 285 287 287 286 286 286 286 286 285 285 285 286 286 285 283 280 278 276 274 272 272 272 272 273 274 275 276 278 281 284 287 288 286 285 287 291 295 296 294 287 275 269 268 266 265 271 285 305 327 339 340 337 339 338 336 336 338 338 339 341 343 342 343 349 356 3 9 13 14 13 9 2 354 342 326 307 295 294
278 279 278 278 279 281 283 284 285 285 284 284 284 283 283 282 280 281 281 283 285 288 288 285 281 278 277 278 277 275 273 273 274 275 276 279 282 284 285 285 287 290 293 290 282 272 260 250 252 261 271 279 296 323 335 338 342 340 336 336 336 332 328 325 324 325 326 327 328 330 333 337 345 355 1 4 6 9 10 5 358 352 342 323 307
278 279 280 280 282 284 284 285 285 285 284 283 282 279 277 275 274 277 281 284 288 291 292 289 285 282 282 282 283 281 277 274 272 272 273 275 279 281 282 281 279 275 273 267 257 249 246 243 241 246 256 266 290 321 329 332 335 336 338 337 334 331 329 325 322 322 321 319 320 324 324 323 326 335 344 348 351 358 6 6 360 356 358 356 347
280 283 284 286 288 290 289 287 286 285 285 285 283 279 275 274 276 280 285 288 290 293 293 291 290 289 291 291 290 288 283 275 269 268 268 270 272 273 271 265 254 242 242 244 242 240 239 234 221 215 224 242 278 306 317 327 331 331 332 332 328 326 327 327 324 323 321 319 319 322 321 318 319 323 327 331 334 341 351 358 354 350 353 1 4
284 284 285 285 285 286 286 285 285 285 286 286 285 284 283 284 286 288 289 290 291 292 293 294 295 299 306 308 304 298 290 277 265 258 256 256 256 255 253 249 241 233 230 232 230 225 223 225 224 220 223 239 273 298 310 320 324 323 322 322 321 321 321 322 322 323 320 319 320 323 323 320 319 320 320 321 322 327 334 342 343 338 342 355 5
278 277 278 280 281 284 287 290 291 292 291 290 289 289 289 288 288 288 288 289 290 292 294 297 300 304 310 313 311 306 298 280 258 245 242 243 244 242 238 234 232 231 228 225 217 199 192 206 227 241 250 260 273 289 297 303 306 308 308 309 310 313 314 315 317 319 319 318 319 322 324 324 324 323 320 320 320 321 325 332 332 327 330 343 358
Height
3184 3185 3186 3186 3186 3186 3186 3186 3186 3186 3185 3185 3184 3183 3182 3181 3179 3177 3176 3174 3172 3170 3168 3167 3166 3164 3163 3162 3161 3159 3158 3157 3156 3155 3154 3153 3152 3151 3150 3149 3148 3146 3145 3144 3142 3141 3140 3139 3137 3136 3135 3134 3133 3131 3130 3128 3127 3125 3124 3123 3123 3122 3120 3118 3114 3112 3112 3112 3111 3109 3107 3104 3103 3102 3099 3099 3100 3099 3098 3099 3101 3102 3103 3104 3106
3181 3182 3182 3183 3183 3183 3184 3184 3184 3183 3183 3182 3181 3181 3180 3179 3177 3175 3173 3172 3170 3168 3167 3165 3164 3163 3162 3161 3159 3158 3156 3155 3154 3153 3152 3151 3150 3149 3148 3147 3145 3144 3142 3141 3139 3138 3137 3136 3134 3133 3132 3131 3130 3128 3127 3125 3123 3122 3121 3120 3119 3119 3117 3114 3112 3108 3106 3107 3106 3104 3102 3100 3097 3096 3094 3092 3093 3093 3093 3093 3094 3096 3097 3099 3100
3178 3179 3179 3180 3181 3181 3181 3181 3181 3181 3180 3179 3179 3179 3178 3176 3174 3173 3171 3169 3167 3166 3165 3164 3163 3162 3161 3159 3158 3157 3155 3154 3153 3151 3150 3149 3148 3146 3145 3143 3142 3141 3139 3138 3137 3136 3134 3133 3132 3130 3129 3128 3127 3125 3123 3122 3121 3119 3118 3117 3115 3115 3114 3112 3109 3105 3102 3101 3102 3100 3097 3095 3092 3090 3088 3086 3086 3086 3086 3087 3088 3089 3091 3093 3095
3175 3176 3177 3177 3177 3178 3178 3178 3178 3178 3177 3177 3177 3177 3176 3174 3172 3170 3169 3167 3165 3164 3163 3162 3161 3160 3159 3158 3157 3155 3154 3152 3151 3149 3148 3146 3145 3144 3142 3141 3139 3138 3137 3135 3134 3133 3131 3130 3129 3127 3126 3125 3124 3122 3121 3119 3118 3116 3115 3114 3112 3111 3111 3109 3106 3103 3099 3097 3097 3096 3092 3090 3087 3085 3082 3080 3080 3079 3079 3081 3082 3083 3085 3087 3089
3172 3173 3174 3174 3174 3175 3175 3175 3175 3175 3175 3175 3175 3175 3173 3171 3170 3168 3167 3165 3163 3161 3160 3159 3158 3157 3157 3156 3155 3153 3152 3150 3149 3147 3146 3144 3143 3142 3140 3139 3137 3136 3134 3133 3132 3130 3129 3128 3126 3125 3123 3122 3121 3120 3118 3117 3115 3113 3112 3110 3109 3107 3107 3106 3103 3100 3097 3094 3092 3091 3089 3086 3083 3081 3077 3074 3073 3074 3073 3074 3076 3077 3079 3081 3083
3169 3170 3171 3171 3171 3172 3172 3172 3172 3172 3172 3172 3173 3172 3171 3169 3167 3166 3164 3162 3160 3158 3157 3156 3155 3154 3154 3153 3152 3151 3149 3148 3147 3145 3143 3142 3141 3139 3138 3137 3135 3133 3132 3130 3129 3128 3126 3125 3124 3122 3121 3120 3119 3117 3115 3114 3112 3110 3109 3107 3106 3104 3103 3102 3100 3097 3095 3092 3089 3086 3085 3082 3078 3076 3073 3069 3067 3067 3067 3068 3070 3071 3072 3074 3077
3166 3166 3167 3168 3168 3169 3169 3169 3169 3169 3170 3170 3170 3169 3168 3166 3165 3163 3160 3158 3157 3156 3155 3154 3154 3153 3152 3150 3149 3148 3147 3145 3144 3143 3141 3140 3138 3137 3136 3135 3133 3132 3130 3128 3127 3125 3124 3122 3121 3120 3118 3117 3116 3114 3112 3111 3109 3108 3106 3105 3103 3101 3099 3098 3096 3094 3091 3089 3086 3083 3080 3078 3074 3071 3068 3065 3063 3062 3062 3061 3063 3065 3066 3068 3070
3163 3163 3164 3164 3165 3166 3166 3166 3166 3166 3167 3167 3167 3166 3165 3163 3162 3160 3158 3156 3156 3155 3155 3154 3153 3152 3150 3148 3147 3146 3144 3143 3141 3140 3139 3137 3136 3135 3134 3133 3132 3130 3129 3127 3125 3123 3122 3120 3118 3117 3115 3114 3113 3111 3110 3108 3106 3105 3104 3102 3099 3098 3096 3094 3092 3090 3088 3086 3083 3079 3076 3074 3071 3066 3063 3061 3059 3059 3058 3056 3057 3059 3061 3062 3064
3159 3160 3161 3161 3162 3163 3163 3163 3163 3164 3164 3165 3164 3163 3162 3160 3159 3157 3156 3156 3155 3154 3153 3152 3151 3149 3148 3147 3145 3144 3143 3141 3140 3138 3137 3135 3134 3132 3131 3130 3129 3128 3126 3125 3123 3121 3119 3117 3115 3114 3112 3111 3110 3108 3107 3105 3103 3102 3101 3099 3096 3094 3092 3091 3089 3087 3084 3082 3080 3076 3073 3070 3066 3062 3060 3057 3055 3054 3054 3053 3052 3053 3055 3056 3058
3156 3157 3157 3158 3160 3160 3160 3160 3161 3161 3162 3162 3161 3160 3159 3157 3156 3155 3154 3154 3153 3152 3151 3150 3149 3148 3147 3145 3144 3142 3141 3140 3138 3137 3135 3133 3131 3130 3128 3127 3125 3124 3124 3122 3121 3119 3117 3115 3113 3111 3110 3109 3107 3105 3103 3102 3100 3099 3097 3095 3093 3091 3089 3087 3085 3083 3081 3079 3076 3073 3069 3066 3063 3060 3056 3054 3051 3050 3049 3049 3047 3048 3049 3050 3052
3153 3154 3154 3156 3156 3157 3157 3157 3158 3159 3160 3159 3158 3157 3156 3154 3153 3152 3152 3151 3150 3149 3149 3148 3147 3146 3145 3143 3142 3141 3139 3138 3136 3135 3133 3131 3129 3127 3125 3124 3123 3121 3120 3119 3118 3116 3114 3112 3111 3109 3107 3106 3104 3102 3100 3099 3097 3095 3094 3092 3090 3088 3085 3083 3082 3080 3077 3074 3072 3069 3065 3062 3060 3057 3054 3051 3048 3045 3045 3044 3043 3043 3044 3043 3046
3150 3150 3151 3152 3153 3153 3154 3155 3156 3157 3157 3157 3156 3154 3152 3152 3151 3150 3149 3148 3148 3147 3147 3146 3144 3144 3143 3141 3140 3139 3137 3136 3134 3132 3130 3128 3126 3125 3123 3121 3120 3118 3117 3115 3114 3112 3111 3109 3108 3106 3104 3103 3101 3099 3098 3096 3094 3092 3091 3089 3087 3084 3082 3080 3078 3076 3073 3070 3068 3066 3063 3059 3056 3054 3051 3047 3044 3042 3040 3039 3039 3039 3039 3038 3039
3146 3147 3148 3149 3150 3151 3152 3154 3154 3155 3155 3154 3152 3151 3150 3149 3149 3148 3147 3146 3146 3145 3144 3143 3142 3141 3140 3139 3138 3136 3135 3133 3131 3129 3127 3125 3124 3122 3120 3118 3117 3115 3114 3112 3111 3109 3107 3106 3104 3103 3101 3099 3098 3096 3095 3093 3092 3089 3087 3086 3084 3082 3079 3077 3074 3071 3069 3067 3064 3063 3061 3057 3053 3050 3047 3043 3040 3038 3036 3034 3034 3034 3034 3033 3034
3142 3143 3145 3146 3147 3148 3150 3151 3152 3152 3152 3151 3149 3148 3148 3147 3146 3145 3145 3144 3144 3143 3142 3140 3139 3137 3136 3136 3135 3133 3132 3130 3128 3126 3124 3122 3120 3119 3117 3116 3114 3113 3111 3110 3108 3106 3104 3102 3101 3100 3098 3096 3095 3093 3092 3090 3088 3087 3085 3082 3081 3079 3077 3074 3071 3068 3066 3064 3062 3060 3059 3055 3050 3046 3043 3040 3036 3033 3031 3029 3029 3028 3028 3028 3029
3138 3139 3141 3141 3142 3144 3147 3148 3149 3149 3149 3147 3146 3146 3145 3145 3144 3144 3143 3142 3141 3140 3139 3137 3135 3134 3133 3132 3131 3130 3128 3126 3124 3123 3121 3119 3117 3115 3114 3113 3111 3110 3109 3107 3105 3103 3101 3099 3098 3097 3095 3094 3092 3090 3089 3087 3085 3084 3082 3080 3078 3076 3074 3072 3069 3066 3064 3061 3059 3056 3054 3051 3047 3043 3040 3036 3032 3028 3026 3024 3023 3022 3022 3022 3023
3135 3135 3136 3138 3139 3142 3144 3145 3146 3146 3145 3144 3143 3143 3143 3142 3142 3141 3140 3139 3138 3137 3135 3133 3132 3130 3129 3128 3127 3127 3125 3123 3121 3119 3117 3115 3113 3112 3111 3110 3108 3107 3106 3104 3102 3100 3098 3096 3095 3094 3092 3091 3089 3087 3086 3084 3083 3081 3079 3077 3075 3074 3072 3069 3067 3064 3062 3059 3056 3054 3051 3048 3045 3040 3037 3032 3027 3023 3020 3018 3018 3017 3015 3015 3016
3132 3132 3134 3136 3138 3139 3141 3142 3143 3142 3141 3140 3140 3139 3140 3140 3139 3138 3137 3136 3134 3133 3131 3130 3128 3126 3125 3124 3124 3123 3122 3120 3118 3116 3114 3112 3110 3109 3108 3107 3105 3104 3103 3101 3099 3098 3096 3094 3092 3091 3090 3088 3086 3084 3083 3081 3079 3077 3076 3074 3072 3071 3069 3067 3064 3062 3059 3057 3054 3051 3048 3045 3042 3038 3033 3028 3023 3018 3014 3011 3011 3011 3010 3009 3010
3129 3131 3133 3134 3135 3136 3139 3140 3140 3139 3138 3137 3136 3136 3136 3136 3136 3134 3133 3132 3131 3129 3128 3126 3124 3121 3119 3119 3119 3119 3118 3117 3115 3113 3110 3108 3107 3106 3105 3104 3102 3101 3100 3098 3096 3095 3093 3091 3089 3088 3087 3085 3082 3081 3079 3077 3076 3074 3072 3070 3069 3067 3066 3064 3062 3059 3057 3054 3052 3049 3046 3043 3038 3034 3028 3023 3019 3014 3009 3006 3005 3005 3004 3003 3005
3127 3129 3132 3132 3132 3134 3136 3137 3136 3135 3134 3133 3132 3132 3132 3132 3131 3131 3129 3128 3127 3126 3124 3121 3119 3117 3115 3115 3114 3113 3114 3113 3111 3109 3107 3106 3104 3103 3102 3101 3099 3098 3097 3095 3094 3092 3090 3088 3086 3085 3083 3081 3079 3078 3076 3074 3072 3071 3069 3067 3065 3064 3062 3060 3058 3055 3053 3051 3048 3046 3043 3039 3034 3029 3024 3018 3014 3010 3005 3002 2999 2998 2997 2997 3000
3125 3128 3129 3128 3129 3131 3133 3133 3132 3130 3129 3128 3128 3127 3126 3126 3126 3126 3125 3124 3122 3121 3119 3117 3116 3115 3115 3113 3111 3109 3109 3109 3108 3106 3105 3103 3101 3100 3099 3098 3096 3095 3093 3092 3091 3089 3088 3086 3084 3082 3080 3078 3076 3074 3073 3071 3069 3067 3065 3064 3062 3060 3058 3056 3054 3051 3049 3047 3044 3041 3037 3034 3030 3025 3020 3014 3009 3004 3000 2997 2994 2992 2990 2991 2994
3124 3125 3125 3125 3127 3128 3128 3128 3127 3126 3125 3125 3124 3123 3122 3122 3121 3121 3120 3119 3118 3116 3115 3114 3112 3112 3111 3109 3107 3105 3104 3104 3104 3103 3101 3099 3098 3097 3096 3094 3092 3091 3090 3089 3088 3087 3085 3084 3081 3079 3077 3075 3073 3071 3069 3067 3065 3064 3062 3060 3058 3056 3054 3052 3050 3048 3045 3043 3040 3037 3033 3030 3026 3022 3016 3010 3004 2998 2994 2991 2989 2986 2984 2984 2988
3122 3122 3122 3123 3124 3124 3124 3123 3122 3122 3122 3121 3120 3118 3117 3117 3116 3115 3114 3114 3113 3112 3111 3110 3108 3107 3106 3104 3102 3101 3101 3101 3100 3099 3097 3096 3094 3093 3092 3091 3089 3088 3087 3086 3084 3083 3082 3081 3078 3076 3074 3072 3070 3068 3066 3064 3062 3060 3059 3057 3055 3053 3050 3048 3046 3044 3042 3039 3036 3033 3030 3026 3022 3017 3012 3006 2999 2992 2987 2984 2982 2980 2978 2979 2982
3119 3119 3119 3120 3120 3120 3119 3119 3119 3118 3118 3117 3116 3114 3113 3113 3112 3110 3109 3109 3108 3107 3106 3105 3103 3102 3101 3099 3098 3098 3097 3097 3096 3094 3093 3092 3091 3089 3088 3087 3085 3084 3083 3082 3081 3080 3079 3077 3075 3073 3072 3069 3067 3065 3063 3061 3059 3057 3055 3054 3052 3050 3048 3045 3043 3041 3039 3036 3033 3031 3027 3023 3018 3013 3007 3001 2994 2987 2981 2978 2975 2973 2973 2974 2976
3117 3116 3116 3116 3116 3116 3115 3115 3115 3115 3114 3113 3112 3110 3109 3108 3107 3107 3105 3105 3104 3102 3101 3100 3098 3098 3097 3095 3094 3093 3092 3091 3091 3090 3088 3088 3087 3086 3085 3083 3082 3081 3080 3079 3078 3077 3075 3073 3072 3070 3068 3066 3064 3062 3060 3058 3056 3054 3053 3051 3049 3047 3045 3043 3040 3038 3036 3033 3031 3028 3024 3020 3015 3009 3003 2997 2991 2983 2977 2973 2969 2967 2967 2969 2971
3113 3112 3112 3113 3113 3113 3113 3113 3112 3111 3110 3109 3108 3106 3105 3104 3103 3102 3101 3099 3098 3098 3097 3096 3094 3093 3092 3091 3090 3088 3086 3085 3085 3085 3085 3084 3083 3082 3081 3079 3078 3077 3076 3075 3074 3073 3071 3069 3068 3067 3065 3064 3062 3059 3057 3055 3054 3052 3050 3049 3047 3045 3042 3040 3038 3036 3033 3031 3028 3025 3022 3018 3013 3007 3002 2996 2989 2982 2975 2969 2965 2963 2963 2964 2967
3109 3109 3109 3110 3110 3110 3110 3109 3108 3107 3106 3105 3105 3103 3102 3101 3100 3098 3097 3095 3094 3094 3093 3092 3090 3089 3087 3086 3085 3083 3082 3081 3081 3081 3081 3080 3079 3078 3077 3076 3074 3073 3072 3072 3070 3069 3067 3065 3064 3064 3062 3060 3058 3056 3054 3053 3051 3049 3048 3046 3044 3042 3040 3038 3036 3033 3031 3028 3026 3023 3019 3016 3011 3007 3001 2996 2989 2981 2973 2967 2963 2961 2961 2962 2964
3106 3107 3107 3107 3106 3106 3105 3104 3104 3104 3103 3103 3102 3101 3100 3098 3097 3095 3094 3092 3091 3090 3089 3088 3086 3084 3083 3082 3081 3079 3078 3078 3078 3078 3077 3076 3075 3073 3072 3072 3071 3070 3069 3068 3066 3065 3063 3062 3061 3061 3059 3057 3055 3053 3051 3050 3048 3047 3045 3044 3042 3040 3037 3035 3033 3030 3028 3025 3023 3020 3017 3014 3010 3006 3001 2995 2989 2981 2974 2967 2963 2961 2961 2962 2963
3105 3105 3104 3103 3102 3102 3102 3102 3102 3102 3101 3101 3099 3098 3097 3096 3094 3093 3091 3089 3088 3086 3085 3083 3082 3080 3079 3078 3077 3076 3075 3075 3074 3073 3072 3072 3070 3068 3067 3067 3067 3066 3065 3064 3062 3061 3059 3058 3058 3057 3056 3054 3052 3050 3049 3047 3046 3044 3043 3041 3039 3037 3035 3033 3031 3028 3025 3023 3020 3018 3016 3012 3009 3005 3001 2995 2989 2982 2975 2969 2963 2960 2960 2960 2961
3101 3101 3100 3100 3100 3100 3100 3100 3100 3100 3099 3098 3097 3095 3094 3093 3091 3090 3088 3086 3084 3082 3081 3080 3078 3076 3075 3074 3073 3072 3072 3072 3071 3069 3069 3068 3067 3065 3064 3064 3063 3062 3061 3060 3059 3057 3055 3055 3054 3054 3053 3051 3049 3047 3046 3045 3043 3042 3040 3039 3037 3035 3033 3031 3029 3026 3024 3021 3019 3016 3014 3011 3008 3004 3000 2996 2990 2983 2977 2970 2964 2960 2958 2958 2959
3098 3098 3098 3098 3099 3099 3098 3098 3098 3097 3096 3095 3093 3092 3091 3089 3088 3086 3084 3082 3080 3079 3077 3076 3074 3073 3071 3070 3069 3068 3068 3067 3066 3065 3065 3064 3064 3063 3062 3060 3060 3058 3057 3056 3055 3053 3052 3051 3051 3050 3049 3048 3046 3045 3043 3042 3041 3039 3038 3036 3035 3032 3030 3028 3027 3025 3022 3019 3017 3014 3012 3010 3007 3004 3000 2996 2991 2985 2979 2973 2966 2960 2957 2956 2957
3096 3096 3096 3096 3096 3096 3096 3095 3095 3094 3092 3091 3089 3088 3086 3085 3083 3082 3080 3078 3076 3074 3073 3072 3070 3069 3067 3066 3065 3064 3063 3062 3062 3061 3061 3060 3060 3059 3057 3056 3055 3054 3053 3051 3050 3049 3048 3048 3047 3047 3046 3045 3043 3042 3041 3040 3039 3037 3036 3034 3032 3030 3028 3026 3024 3022 3020 3018 3015 3013 3011 3008 3005 3003 3000 2995 2991 2986 2981 2975 2968 2962 2958 2957 2957
3093 3093 3093 3093 3093 3093 3092 3091 3090 3089 3088 3087 3085 3084 3082 3080 3079 3077 3075 3073 3072 3070 3068 3067 3066 3064 3063 3062 3061 3060 3059 3058 3058 3057 3057 3056 3055 3055 3053 3052 3051 3050 3049 3048 3046 3045 3045 3045 3044 3044 3043 3042 3041 3039 3038 3037 3036 3035 3033 3032 3030 3028 3025 3023 3022 3020 3018 3016 3014 3011 3009 3007 3005 3002 2999 2996 2992 2988 2983 2977 2970 2965 2961 2959 2958
3088 3088 3089 3089 3089 3089 3088 3087 3086 3085 3084 3083 3081 3080 3079 3077 3075 3073 3071 3069 3067 3065 3064 3063 3061 3060 3058 3057 3056 3055 3054 3054 3054 3053 3053 3053 3052 3051 3049 3048 3048 3047 3046 3045 3044 3043 3042 3042 3042 3041 3040 3039 3038 3037 3035 3034 3033 3032 3030 3029 3027 3025 3023 3021 3019 3017 3015 3013 3011 3009 3007 3005 3004 3002 2999 2996 2993 2989 2985 2979 2973 2968 2964 2961 2959
3084 3084 3085 3086 3086 3085 3084 3083 3082 3081 3080 3079 3077 3076 3075 3073 3071 3069 3066 3064 3062 3061 3059 3058 3057 3056 3054 3053 3052 3051 3050 3050 3050 3050 3050 3049 3048 3047 3046 3045 3045 3044 3042 3042 3041 3040 3040 3039 3039 3038 3038 3036 3035 3034 3033 3031 3030 3028 3027 3026 3024 3022 3020 3018 3017 3015 3013 3011 3009 3007 3005 3003 3002 3001 2999 2997 2993 2990 2987 2983 2977 2971 2967 2964 2962
3081 3081 3082 3082 3082 3081 3080 3079 3079 3077 3076 3075 3073 3072 3070 3069 3067 3064 3062 3060 3058 3056 3055 3054 3053 3052 3051 3049 3048 3047 3047 3047 3047 3047 3046 3045 3045 3043 3042 3041 3041 3040 3039 3038 3038 3038 3037 3037 3036 3035 3034 3034 3033 3031 3030 3028 3027 3025 3024 3023 3021 3020 3018 3016 3014 3013 3011 3009 3007 3006 3004 3002 3001 2999 2998 2996 2994 2991 2988 2985 2981 2975 2971 2968 2965
3079 3079 3079 3078 3077 3077 3076 3076 3075 3073 3072 3071 3069 3068 3066 3064 3062 3060 3058 3056 3054 3053 3051 3050 3049 3048 3047 3045 3044 3044 3044 3044 3043 3043 3042 3041 3040 3039 3038 3037 3037 3037 3036 3036 3036 3035 3035 3034 3033 3032 3031 3031 3030 3028 3027 3026 3024 3023 3022 3020 3019 3017 3016 3014 3012 3011 3009 3008 3006 3004 3002 3001 2999 2998 2997 2995 2994 2991 2989 2986 2983 2980 2976 2972 2969
3076 3076 3075 3075 3074 3073 3072 3071 3070 3069 3068 3066 3065 3063 3061 3060 3057 3055 3053 3052 3050 3049 3048 3046 3045 3044 3043 3042 3041 3041 3040 3040 3040 3039 3039 3037 3037 3036 3035 3034 3034 3034 3034 3034 3033 3033 3032 3031 3030 3030 3029 3028 3027 3025 3024 3023 3021 3020 3019 3018 3016 3015 3013 3012 3011 3009 3008 3006 3004 3003 3001 2999 2998 2997 2996 2995 2993 2992 2990 2987 2985 2982 2980 2977 2974
3072 3072 3072 3071 3070 3069 3068 3067 3066 3064 3063 3062 3060 3058 3057 3055 3053 3051 3050 3048 3047 3045 3044 3043 3042 3041 3040 3039 3038 3037 3037 3037 3037 3037 3036 3035 3034 3034 3033 3033 3032 3032 3032 3031 3031 3030 3029 3029 3028 3027 3026 3025 3023 3022 3021 3020 3018 3017 3016 3015 3014 3012 3011 3010 3008 3007 3006 3004 3003 3001 3000 2998 2997 2995 2994 2994 2993 2992 2990 2989 2986 2984 2982 2980 2977
3068 3068 3067 3066 3065 3064 3063 3062 3061 3060 3059 3057 3055 3053 3052 3050 3048 3047 3046 3044 3043 3042 3041 3041 3040 3039 3037 3036 3035 3034 3034 3034 3034 3034 3034 3034 3033 3032 3032 3031 3030 3030 3030 3029 3028 3027 3027 3026 3025 3024 3023 3022 3020 3019 3018 3017 3016 3015 3014 3013 3012 3010 3009 3008 3007 3005 3004 3003 3001 3000 2999 2997 2996 2994 2993 2993 2992 2991 2990 2989 2987 2986 2984 2981 2979
3063 3062 3062 3061 3060 3059 3059 3058 3057 3055 3054 3052 3050 3048 3047 3045 3044 3043 3042 3041 3040 3039 3039 3038 3037 3036 3035 3034 3033 3032 3032 3032 3032 3032 3032 3032 3032 3031 3030 3029 3028 3027 3027 3027 3026 3025 3024 3023 3022 3021 3020 3019 3017 3017 3016 3015 3014 3012 3011 3010 3010 3009 3008 3006 3005 3004 3002 3001 3000 2999 2998 2996 2995 2994 2993 2992 2991 2991 2990 2989 2988 2987 2985 2983 2981
3058 3057 3057 3056 3055 3055 3055 3054 3052 3051 3049 3047 3045 3044 3042 3041 3040 3040 3039 3038 3037 3036 3036 3035 3035 3034 3033 3032 3031 3030 3030 3030 3030 3030 3029 3029 3029 3028 3028 3027 3026 3025 3025 3025 3024 3023 3021 3020 3019 3018 3017 3016 3015 3014 3014 3013 3012 3011 3010 3009 3008 3007 3007 3005 3004 3003 3002 3000 2999 2998 2997 2996 2994 2993 2992 2991 2990 2990 2989 2989 2988 2987 2986 2985 2983
3052 3052 3052 3052 3051 3051 3050 3049 3047 3046 3044 3042 3041 3039 3038 3037 3037 3036 3036 3035 3034 3033 3033 3033 3032 3031 3030 3030 3029 3029 3028 3028 3028 3027 3027 3026 3026 3025 3025 3024 3023 3022 3022 3022 3022 3020 3019 3018 3017 3016 3015 3014 3013 3012 3012 3011 3010 3009 3009 3008 3007 3007 3006 3005 3004 3003 3001 3000 2999 2998 2996 2995 2994 2993 2992 2991 2990 2989 2989 2988 2988 2987 2987 2986 2985
3048 3047 3047 3047 3047 3046 3045 3044 3042 3041 3039 3038 3037 3035 3034 3034 3033 3033 3033 3032 3032 3031 3030 3030 3029 3028 3028 3027 3027 3026 3026 3025 3025 3025 3025 3024 3024 3023 3022 3021 3020 3019 3018 3018 3018 3017 3016 3016 3015 3014 3013 3012 3011 3011 3010 3010 3009 3009 3008 3007 3006 3006 3005 3004 3004 3003 3001 3000 2999 2997 2996 2995 2994 2993 2991 2990 2989 2989 2988 2988 2987 2987 2987 2986 2986
3043 3043 3043 3042 3042 3041 3040 3039 3037 3036 3035 3034 3033 3032 3031 3031 3030 3029 3029 3029 3029 3028 3028 3027 3027 3026 3025 3025 3024 3024 3023 3022 3022 3022 3022 3022 3021 3021 3020 3019 3018 3017 3016 3015 3015 3015 3014 3013 3012 3012 3011 3011 3010 3010 3009 3009 3009 3008 3007 3007 3006 3005 3004 3004 3003 3002 3001 3000 2999 2998 2997 2996 2994 2993 2992 2990 2989 2988 2988 2987 2987 2987 2986 2986 2986
3039 3039 3038 3038 3037 3036 3035 3034 3033 3033 3032 3031 3030 3029 3028 3028 3027 3027 3026 3026 3026 3026 3025 3025 3024 3024 3023 3023 3022 3021 3021 3020 3020 3019 3019 3019 3019 3018 3018 3017 3016 3014 3014 3013 3013 3012 3012 3011 3011 3011 3010 3010 3010 3009 3009 3009 3008 3007 3007 3006 3005 3004 3003 3003 3002 3002 3001 3000 2999 2998 2997 2996 2995 2993 2992 2991 2990 2989 2988 2987 2987 2986 2986 2986 2986
3035 3035 3034 3034 3033 3032 3031 3030 3030 3029 3029 3028 3027 3026 3026 3025 3025 3024 3023 3023 3022 3022 3022 3022 3022 3021 3021 3020 3020 3019 3018 3018 3017 3017 3016 3016 3016 3015 3015 3014 3013 3012 3011 3011 3010 3010 3011 3010 3010 3009 3009 3009 3009 3009 3008 3008 3007 3007 3006 3005 3004 3004 3003 3002 3002 3001 3001 3000 2999 2998 2997 2996 2995 2994 2993 2992 2990 2989 2988 2988 2987 2987 2986 2986 2986
3031 3031 3030 3030 3029 3028 3028 3027 3026 3026 3026 3025 3024 3024 3023 3022 3022 3021 3021 3020 3019 3018 3018 3018 3018 3018 3017 3017 3016 3015 3014 3014 3014 3013 3013 3013 3013 3012 3012 3011 3010 3010 3009 3009 3009 3009 3009 3009 3009 3009 3008 3008 3008 3008 3008 3007 3007 3006 3006 3005 3004 3003 3003 3002 3001 3000 3000 2999 2999 2998 2997 2996 2995 2994 2993 2992 2991 2990 2989 2988 2988 2987 2986 2986 2986
3027 3026 3026 3025 3025 3025 3025 3024 3024 3023 3022 3022 3022 3021 3021 3020 3019 3019 3018 3017 3016 3015 3015 3015 3015 3015 3015 3013 3012 3011 3011 3011 3011 3011 3010 3010 3010 3009 3009 3009 3009 3008 3008 3008 3008 3008 3008 3008 3008 3007 3007 3007 3007 3007 3007 3006 3006 3005 3005 3004 3004 3003 3002 3001 3000 2999 2998 2998 2997 2997 2996 2995 2994 2994 2993 2992 2991 2990 2990 2989 2988 2987 2987 2986 2986
3023 3022 3022 3022 3021 3021 3021 3021 3021 3020 3019 3019 3019 3019 3018 3018 3017 3016 3015 3014 3013 3013 3012 3011 3011 3011 3011 3010 3009 3008 3008 3008 3008 3008 3007 3007 3007 3007 3007 3007 3007 3007 3007 3007 3007 3007 3006 3006 3006 3006 3006 3007 3007 3006 3006 3005 3005 3004 3004 3003 3003 3002 3001 3000 2999 2999 2997 2997 2996 2996 2995 2994 2993 2993 2992 2991 2991 2990 2990 2989 2988 2987 2987 2987 2987
3020 3020 3019 3019 3018 3018 3018 3018 3017 3017 3016 3016 3015 3015 3015 3014 3013 3012 3011 3011 3010 3009 3008 3008 3007 3007 3007 3006 3006 3006 3005 3005 3005 3005 3005 3004 3005 3005 3005 3005 3005 3005 3005 3005 3006 3005 3005 3004 3005 3005 3006 3006 3006 3005 3005 3004 3004 3003 3003 3002 3002 3001 3000 3000 2999 2998 2997 2996 2995 2994 2994 2993 2993 2992 2991 2990 2990 2990 2990 2989 2988 2988 2987 2987 2987
3017 3017 3016 3016 3016 3015 3015 3014 3014 3013 3013 3012 3011 3011 3010 3010 3009 3009 3008 3007 3006 3006 3005 3004 3003 3003 3003 3003 3002 3002 3002 3003 3003 3003 3002 3002 3003 3003 3003 3003 3003 3003 3003 3004 3004 3004 3004 3003 3003 3004 3004 3004 3004 3004 3004 3004 3003 3003 3002 3002 3001 3000 2999 2999 2998 2997 2996 2995 2994 2993 2993 2992 2992 2991 2990 2990 2989 2989 2989 2989 2988 2987 2987 2987 2987